This is the latest recevied weather packets stored in our database for station/object W1RCY. If no packets are shown the sender has not sent any weather packets the latest 10 day(s).
| Time | Temp. | Humidity | Pressure | Rain* | Wind** | Luminosity | Snow |
|---|---|---|---|---|---|---|---|
| 1778070569 | 16.11° C | 83% | 1007.2 hPa | 0 mm | - | 102 W/m² | - |
| 1778070265 | 16.11° C | 83% | 1007.1 hPa | 0 mm | - | 95 W/m² | - |
| 1778069964 | 16.11° C | 83% | 1007.3 hPa | 0 mm | - | 132 W/m² | - |
| 1778069660 | 16.11° C | 83% | 1007.3 hPa | 0 mm | - | 121 W/m² | - |
| 1778069358 | 16.11° C | 83% | 1007.5 hPa | 0 mm | - | 134 W/m² | - |
| 1778069055 | 16.11° C | 84% | 1007.4 hPa | 0 mm | - | 147 W/m² | - |
| 1778068752 | 15.56° C | 84% | 1007.3 hPa | 0 mm | - | 157 W/m² | - |
| 1778068450 | 15.56° C | 84% | 1007.6 hPa | 0 mm | - | 155 W/m² | - |
| 1778068148 | 15.56° C | 84% | 1007.8 hPa | 0 mm | - | 126 W/m² | - |
| 1778067845 | 15.56° C | 84% | 1007.5 hPa | 0 mm | - | 94 W/m² | - |
| 1778067544 | 15.56° C | 84% | 1007.6 hPa | 0 mm | - | 71 W/m² | - |
| 1778067241 | 15.56° C | 84% | 1007.2 hPa | 0 mm | - | 105 W/m² | - |
| 1778066937 | 15.56° C | 84% | 1007.4 hPa | 0 mm | - | 147 W/m² | - |
| 1778066635 | 15° C | 85% | 1007.9 hPa | 0 mm | - | 127 W/m² | - |
| 1778066332 | 15° C | 85% | 1007.9 hPa | 0 mm | - | 81 W/m² | - |
| 1778066030 | 15° C | 85% | 1007.7 hPa | 0 mm | - | 59 W/m² | - |
| 1778065728 | 15° C | 85% | 1007.8 hPa | 0 mm | - | 66 W/m² | - |
| 1778065425 | 15° C | 85% | 1008 hPa | 0 mm | - | 83 W/m² | - |
| 1778065121 | 15° C | 86% | 1007.9 hPa | 0 mm | - | 70 W/m² | - |
| 1778064818 | 15° C | 85% | 1007.7 hPa | 0 mm | - | 70 W/m² | - |
| 1778064516 | 14.44° C | 85% | 1007.9 hPa | 0 mm | - | 53 W/m² | - |
| 1778064213 | 15° C | 85% | 1007.9 hPa | 0 mm | - | 37 W/m² | - |
| 1778063911 | 15° C | 85% | 1007.8 hPa | 0 mm | - | 46 W/m² | - |
| 1778063608 | 14.44° C | 85% | 1007.7 hPa | 0 mm | - | 51 W/m² | - |
| 1778063305 | 14.44° C | 85% | 1007.6 hPa | 0 mm | - | 41 W/m² | - |
* Rain latest hour (hover to see other rain measurements)
** Current wind speed in m/s (hover to see current wind gust speed)